Lerna, IL

1:30 AM CDT on September 29, 2016 (GMT -0500)
Coles County Memorial

Weather History for KMTO - February, 2013

Change the Weather History Date:

Saturday, February 9, 2013

  Actual Average Record
Temperature  
Mean Temperature 36 °F 30 °F  
Max Temperature 41 °F 38 °F 63 °F (2009)
Min Temperature 30 °F 22 °F -11 °F (1979)
Degree Days  
Heating Degree Days 29 35  
Month to date heating degree days 306 325  
Since 1 July heating degree days 3344 3601  
Cooling Degree Days 0 0  
Month to date cooling degree days 0 0  
Year to date cooling degree days 0 0  
Moisture  
Dew Point 26 °F    
Average Humidity 69    
Maximum Humidity 78    
Minimum Humidity 60    
Precipitation  
Precipitation 0.00 in 0.07 in 1.37 in (1959)
Month to date precipitation 0.19 0.61  
Year to date precipitation 4.06 2.82  
Sea Level Pressure  
Sea Level Pressure 30.28 in    
Wind  
Wind Speed 9 mph (SE)    
Max Wind Speed 15 mph    
Max Gust Speed 20 mph    
Visibility 10 miles    
Events      
T = Trace of Precipitation, MM = Missing Value Source: NWS Daily Summary

Daily Weather History Graph

Daily Weather History Graph

Search for Another Location

Airport or City:

Trip Planner

Search our weather history database for the weather conditions in past years. The results will help you decide how hot, cold, wet, or windy it might be!

Date:

Astronomy

Feb. 09, 2013 Rise Set
Actual Time 6:52 AM CST 5:23 PM CST
Civil Twilight 6:24 AM CST 5:51 PM CST
Nautical Twilight 5:52 AM CST 6:22 PM CST
Astronomical Twilight 5:21 AM CST 6:54 PM CST
Moon 6:03 AM CST (2/9) 5:05 PM CST (2/9)
Length of Visible Light 11h 26m
Length of Day
10h 31m
Waning Crescent, 0% of the Moon is Illuminated
Feb 9
Waning Crescent
Feb 10
New
Feb 17
First Quarter
Feb 25
Full
Mar 4
Last Quarter

Hourly Weather History & Observations

Time (CST) Temp. Windchill Dew Point Humidity Pressure Visibility Wind Dir Wind Speed Gust Speed Precip Events Conditions
12:53 AM 30.9 °F 24.3 °F 24.1 °F 76% 30.38 in 10.0 mi ENE 6.9 mph - N/A   Overcast
1:53 AM 30.0 °F 23.2 °F 24.1 °F 79% 30.37 in 10.0 mi ESE 6.9 mph - N/A   Overcast
2:53 AM 30.0 °F 25.2 °F 24.1 °F 79% 30.38 in 10.0 mi East 4.6 mph - N/A   Overcast
3:53 AM 30.0 °F 24.1 °F 24.1 °F 79% 30.38 in 10.0 mi SE 5.8 mph - N/A   Overcast
4:53 AM 30.0 °F 23.2 °F 24.1 °F 79% 30.38 in 10.0 mi East 6.9 mph - N/A   Overcast
5:53 AM 30.0 °F 23.2 °F 24.1 °F 79% 30.39 in 10.0 mi SE 6.9 mph - N/A   Overcast
6:53 AM 30.0 °F 23.2 °F 24.1 °F 79% 30.38 in 10.0 mi SE 6.9 mph - N/A   Overcast
7:53 AM 30.0 °F 20.5 °F 23.0 °F 75% 30.38 in 10.0 mi SE 11.5 mph - N/A   Overcast
8:53 AM 30.0 °F 20.5 °F 23.0 °F 75% 30.38 in 10.0 mi SE 11.5 mph - N/A   Overcast
9:53 AM 30.9 °F 22.2 °F 24.1 °F 76% 30.38 in 10.0 mi SE 10.4 mph 19.6 mph N/A   Overcast
10:53 AM 32.0 °F 24.8 °F 25.0 °F 75% 30.38 in 10.0 mi SSE 8.1 mph - N/A   Overcast
11:44 AM 35.6 °F 28.0 °F 26.6 °F 70% 30.32 in 10.0 mi South 10.4 mph - N/A   Scattered Clouds
11:53 AM 35.1 °F 27.9 °F 27.0 °F 72% 30.33 in 10.0 mi South 9.2 mph - N/A   Partly Cloudy
12:53 PM 37.9 °F 30.9 °F 28.0 °F 68% 30.30 in 10.0 mi South 10.4 mph - N/A   Clear
1:53 PM 39.0 °F 31.8 °F 28.9 °F 67% 30.27 in 10.0 mi South 11.5 mph - N/A   Clear
2:53 PM 41.0 °F 35.8 °F 30.0 °F 65% 30.25 in 10.0 mi SE 8.1 mph - N/A   Clear
3:53 PM 41.0 °F 34.3 °F 28.9 °F 62% 30.22 in 10.0 mi SE 11.5 mph - N/A   Clear
4:53 PM 39.0 °F 32.8 °F 28.9 °F 67% 30.20 in 10.0 mi SE 9.2 mph - N/A   Clear
5:53 PM 36.0 °F 29.6 °F 28.0 °F 73% 30.19 in 10.0 mi SE 8.1 mph - N/A   Clear
6:53 PM 36.0 °F 28.5 °F 28.9 °F 76% 30.17 in 10.0 mi SE 10.4 mph - N/A   Clear
7:53 PM 37.0 °F 29.3 °F 28.0 °F 70% 30.16 in 10.0 mi SE 11.5 mph - N/A   Clear
8:53 PM 36.0 °F 27.5 °F 28.0 °F 73% 30.15 in 10.0 mi SE 12.7 mph - N/A   Clear
9:53 PM 37.0 °F 29.3 °F 27.0 °F 67% 30.12 in 10.0 mi SSE 11.5 mph - N/A   Clear
10:53 PM 37.0 °F 28.9 °F 27.0 °F 67% 30.11 in 10.0 mi SSE 12.7 mph - N/A   Clear
11:53 PM 37.9 °F 31.5 °F 27.0 °F 65% 30.09 in 10.0 mi SSE 9.2 mph - N/A   Overcast